Year,Month,Day,Hour,Minute,Value (Times are PST for temperature in C)
2017,04,22,00,00,10.00
2017,04,22,00,01,9.90
2017,04,22,00,02,9.90
2017,04,22,00,03,9.80
2017,04,22,00,04,9.80
2017,04,22,00,05,9.70
2017,04,22,00,06,9.70
2017,04,22,00,07,9.70
2017,04,22,00,08,9.60
2017,04,22,00,09,9.60
2017,04,22,00,10,9.60
2017,04,22,00,11,9.60
2017,04,22,00,12,9.60
2017,04,22,00,13,9.60
2017,04,22,00,14,9.60
2017,04,22,00,15,9.60
2017,04,22,00,16,9.60
2017,04,22,00,17,9.50
2017,04,22,00,18,9.50
2017,04,22,00,19,9.50
2017,04,22,00,20,9.40
2017,04,22,00,21,9.40
2017,04,22,00,22,9.40
2017,04,22,00,23,9.30
2017,04,22,00,24,9.30
2017,04,22,00,25,9.30
2017,04,22,00,26,9.30
2017,04,22,00,27,9.20
2017,04,22,00,28,9.20
2017,04,22,00,29,9.20
2017,04,22,00,30,9.10
2017,04,22,00,31,9.10
2017,04,22,00,32,9.10
2017,04,22,00,33,9.00
2017,04,22,00,34,9.00
2017,04,22,00,35,9.00
2017,04,22,00,36,8.90
2017,04,22,00,37,8.90
2017,04,22,00,38,8.90
2017,04,22,00,39,8.90
2017,04,22,00,40,8.90
2017,04,22,00,41,8.90
2017,04,22,00,42,8.90
2017,04,22,00,43,8.80
2017,04,22,00,44,8.80
2017,04,22,00,45,8.80
2017,04,22,00,46,8.80
2017,04,22,00,47,8.80
2017,04,22,00,48,8.80
2017,04,22,00,49,8.80
2017,04,22,00,50,8.80
2017,04,22,00,51,8.80
2017,04,22,00,52,8.80
2017,04,22,00,53,8.80
2017,04,22,00,54,8.80
2017,04,22,00,55,8.80
2017,04,22,00,56,8.80
2017,04,22,00,57,8.80
2017,04,22,00,58,8.80
2017,04,22,00,59,8.80
2017,04,22,01,00,8.80
2017,04,22,01,01,8.80
2017,04,22,01,02,8.80
2017,04,22,01,03,8.70
2017,04,22,01,04,8.70
2017,04,22,01,05,8.70
2017,04,22,01,06,8.70
2017,04,22,01,07,8.70
2017,04,22,01,08,8.70
2017,04,22,01,09,8.70
2017,04,22,01,10,8.70
2017,04,22,01,11,8.60
2017,04,22,01,12,8.60
2017,04,22,01,13,8.60
2017,04,22,01,14,8.60
2017,04,22,01,15,8.60
2017,04,22,01,16,8.60
2017,04,22,01,17,8.60
2017,04,22,01,18,8.60
2017,04,22,01,19,8.60
2017,04,22,01,20,8.60
2017,04,22,01,21,8.60
2017,04,22,01,22,8.60
2017,04,22,01,23,8.60
2017,04,22,01,24,8.60
2017,04,22,01,25,8.60
2017,04,22,01,26,8.60
2017,04,22,01,27,8.60
2017,04,22,01,28,8.60
2017,04,22,01,29,8.60
2017,04,22,01,30,8.60
2017,04,22,01,31,8.60
2017,04,22,01,32,8.60
2017,04,22,01,33,8.60
2017,04,22,01,34,8.60
2017,04,22,01,35,8.60
2017,04,22,01,36,8.70
2017,04,22,01,37,8.70
2017,04,22,01,38,8.70
2017,04,22,01,39,8.70
2017,04,22,01,40,8.70
2017,04,22,01,41,8.70
2017,04,22,01,42,8.70
2017,04,22,01,43,8.70
2017,04,22,01,44,8.70
2017,04,22,01,45,8.70
2017,04,22,01,46,8.70
2017,04,22,01,47,8.70
2017,04,22,01,48,8.70
2017,04,22,01,49,8.70
2017,04,22,01,50,8.70
2017,04,22,01,51,8.70
2017,04,22,01,52,8.70
2017,04,22,01,53,8.70
2017,04,22,01,54,8.70
2017,04,22,01,55,8.70
2017,04,22,01,56,8.70
2017,04,22,01,57,8.70
2017,04,22,01,58,8.70
2017,04,22,01,59,8.70
2017,04,22,02,00,8.70
2017,04,22,02,01,8.70
2017,04,22,02,02,8.70
2017,04,22,02,03,8.70
2017,04,22,02,04,8.70
2017,04,22,02,05,8.70
2017,04,22,02,06,8.70
2017,04,22,02,07,8.70
2017,04,22,02,08,8.70
2017,04,22,02,09,8.70
2017,04,22,02,10,8.70
2017,04,22,02,11,8.70
2017,04,22,02,12,8.60
2017,04,22,02,13,8.60
2017,04,22,02,14,8.60
2017,04,22,02,15,8.70
2017,04,22,02,16,8.70
2017,04,22,02,17,8.70
2017,04,22,02,18,8.70
2017,04,22,02,19,8.70
2017,04,22,02,20,8.70
2017,04,22,02,21,8.70
2017,04,22,02,22,8.70
2017,04,22,02,23,8.70
2017,04,22,02,24,8.70
2017,04,22,02,25,8.70
2017,04,22,02,26,8.70
2017,04,22,02,27,8.70
2017,04,22,02,28,8.70
2017,04,22,02,29,8.70
2017,04,22,02,30,8.70
2017,04,22,02,31,8.70
2017,04,22,02,32,8.70
2017,04,22,02,33,8.70
2017,04,22,02,34,8.70
2017,04,22,02,35,8.70
2017,04,22,02,36,8.60
2017,04,22,02,37,8.60
2017,04,22,02,38,8.60
2017,04,22,02,39,8.70
2017,04,22,02,40,8.70
2017,04,22,02,41,8.70
2017,04,22,02,42,8.70
2017,04,22,02,43,8.70
2017,04,22,02,44,8.70
2017,04,22,02,45,8.70
2017,04,22,02,46,8.70
2017,04,22,02,47,8.70
2017,04,22,02,48,8.70
2017,04,22,02,49,8.70
2017,04,22,02,50,8.70
2017,04,22,02,51,8.70
2017,04,22,02,52,8.60
2017,04,22,02,53,8.60
2017,04,22,02,54,8.60
2017,04,22,02,55,8.60
2017,04,22,02,56,8.50
2017,04,22,02,57,8.50
2017,04,22,02,58,8.40
2017,04,22,02,59,8.40
2017,04,22,03,00,8.40
2017,04,22,03,01,8.40
2017,04,22,03,02,8.40
2017,04,22,03,03,8.40
2017,04,22,03,04,8.40
2017,04,22,03,05,8.40
2017,04,22,03,06,8.40
2017,04,22,03,07,8.40
2017,04,22,03,08,8.40
2017,04,22,03,09,8.40
2017,04,22,03,10,8.40
2017,04,22,03,11,8.40
2017,04,22,03,12,8.50
2017,04,22,03,13,8.50
2017,04,22,03,14,8.50
2017,04,22,03,15,8.50
2017,04,22,03,16,8.50
2017,04,22,03,17,8.50
2017,04,22,03,18,8.50
2017,04,22,03,19,8.50
2017,04,22,03,20,8.40
2017,04,22,03,21,8.40
2017,04,22,03,22,8.40
2017,04,22,03,23,8.40
2017,04,22,03,24,8.40
2017,04,22,03,25,8.40
2017,04,22,03,26,8.40
2017,04,22,03,27,8.40
2017,04,22,03,28,8.40
2017,04,22,03,29,8.40
2017,04,22,03,30,8.30
2017,04,22,03,31,8.30
2017,04,22,03,32,8.30
2017,04,22,03,33,8.30
2017,04,22,03,34,8.30
2017,04,22,03,35,8.20
2017,04,22,03,36,8.20
2017,04,22,03,37,8.10
2017,04,22,03,38,8.10
2017,04,22,03,39,8.10
2017,04,22,03,40,8.00
2017,04,22,03,41,8.00
2017,04,22,03,42,8.00
2017,04,22,03,43,7.90
2017,04,22,03,44,7.90
2017,04,22,03,45,7.90
2017,04,22,03,46,7.90
2017,04,22,03,47,7.90
2017,04,22,03,48,7.90
2017,04,22,03,49,7.90
2017,04,22,03,50,7.90
2017,04,22,03,51,7.90
2017,04,22,03,52,7.80
2017,04,22,03,53,7.80
2017,04,22,03,54,7.80
2017,04,22,03,55,7.80
2017,04,22,03,56,7.80
2017,04,22,03,57,7.80
2017,04,22,03,58,7.80
2017,04,22,03,59,7.80
2017,04,22,04,00,7.80
2017,04,22,04,01,7.80
2017,04,22,04,02,7.80
2017,04,22,04,03,7.80
2017,04,22,04,04,7.70
2017,04,22,04,05,7.70
2017,04,22,04,06,7.70
2017,04,22,04,07,7.70
2017,04,22,04,08,7.70
2017,04,22,04,09,7.70
2017,04,22,04,10,7.70
2017,04,22,04,11,7.70
2017,04,22,04,12,7.70
2017,04,22,04,13,7.70
2017,04,22,04,14,7.70
2017,04,22,04,15,7.70
2017,04,22,04,16,7.70
2017,04,22,04,17,7.70
2017,04,22,04,18,7.60
2017,04,22,04,19,7.60
2017,04,22,04,20,7.60
2017,04,22,04,21,7.60
2017,04,22,04,22,7.60
2017,04,22,04,23,7.60
2017,04,22,04,24,7.60
2017,04,22,04,25,7.50
2017,04,22,04,26,7.50
2017,04,22,04,27,7.50
2017,04,22,04,28,7.50
2017,04,22,04,29,7.40
2017,04,22,04,30,7.40
2017,04,22,04,31,7.40
2017,04,22,04,32,7.40
2017,04,22,04,33,7.40
2017,04,22,04,34,7.40
2017,04,22,04,35,7.40
2017,04,22,04,36,7.40
2017,04,22,04,37,7.40
2017,04,22,04,38,7.40
2017,04,22,04,39,7.40
2017,04,22,04,40,7.40
2017,04,22,04,41,7.40
2017,04,22,04,42,7.40
2017,04,22,04,43,7.40
2017,04,22,04,44,7.40
2017,04,22,04,45,7.40
2017,04,22,04,46,7.40
2017,04,22,04,47,7.40
2017,04,22,04,48,7.30
2017,04,22,04,49,7.30
2017,04,22,04,50,7.30
2017,04,22,04,51,7.30
2017,04,22,04,52,7.40
2017,04,22,04,53,7.40
2017,04,22,04,54,7.40
2017,04,22,04,55,7.40
2017,04,22,04,56,7.30
2017,04,22,04,57,7.40
2017,04,22,04,58,7.40
2017,04,22,04,59,7.40
2017,04,22,05,00,7.40
2017,04,22,05,01,7.40
2017,04,22,05,02,7.40
2017,04,22,05,03,7.40
2017,04,22,05,04,7.40
2017,04,22,05,05,7.40
2017,04,22,05,06,7.40
2017,04,22,05,07,7.40
2017,04,22,05,08,7.40
2017,04,22,05,09,7.40
2017,04,22,05,10,7.30
2017,04,22,05,11,7.30
2017,04,22,05,12,7.30
2017,04,22,05,13,7.30
2017,04,22,05,14,7.30
2017,04,22,05,15,7.30
2017,04,22,05,16,7.30
2017,04,22,05,17,7.30
2017,04,22,05,18,7.20
2017,04,22,05,19,7.20
2017,04,22,05,20,7.20
2017,04,22,05,21,7.20
2017,04,22,05,22,7.20
2017,04,22,05,23,7.20
2017,04,22,05,24,7.20
2017,04,22,05,25,7.20
2017,04,22,05,26,7.20
2017,04,22,05,27,7.20
2017,04,22,05,28,7.20
2017,04,22,05,29,7.20
2017,04,22,05,30,7.20
2017,04,22,05,31,7.20
2017,04,22,05,32,7.20
2017,04,22,05,33,7.20
2017,04,22,05,34,7.20
2017,04,22,05,35,7.20
2017,04,22,05,36,7.20
2017,04,22,05,37,7.20
2017,04,22,05,38,7.10
2017,04,22,05,39,7.10
2017,04,22,05,40,7.10
2017,04,22,05,41,7.10
2017,04,22,05,42,7.10
2017,04,22,05,43,7.10
2017,04,22,05,44,7.00
2017,04,22,05,45,7.00
2017,04,22,05,46,7.00
2017,04,22,05,47,7.00
2017,04,22,05,48,7.00
2017,04,22,05,49,7.00
2017,04,22,05,50,7.10
2017,04,22,05,51,7.10
2017,04,22,05,52,7.10
2017,04,22,05,53,7.10
2017,04,22,05,54,7.10
2017,04,22,05,55,7.00
2017,04,22,05,56,7.00
2017,04,22,05,57,7.00
2017,04,22,05,58,6.90
2017,04,22,05,59,6.90
2017,04,22,06,00,6.90
2017,04,22,06,01,6.90
2017,04,22,06,02,6.90
2017,04,22,06,03,6.90
2017,04,22,06,04,6.90
2017,04,22,06,05,6.80
2017,04,22,06,06,6.80
2017,04,22,06,07,6.90
2017,04,22,06,08,6.80
2017,04,22,06,09,6.90
2017,04,22,06,10,6.90
2017,04,22,06,11,6.90
2017,04,22,06,12,6.90
2017,04,22,06,13,6.90
2017,04,22,06,14,6.90
2017,04,22,06,15,6.90
2017,04,22,06,16,6.90
2017,04,22,06,17,6.90
2017,04,22,06,18,6.90
2017,04,22,06,19,6.90
2017,04,22,06,20,6.90
2017,04,22,06,21,6.90
2017,04,22,06,22,6.90
2017,04,22,06,23,6.90
2017,04,22,06,24,6.90
2017,04,22,06,25,6.90
2017,04,22,06,26,6.90
2017,04,22,06,27,6.90
2017,04,22,06,28,6.90
2017,04,22,06,29,6.90
2017,04,22,06,30,6.90
2017,04,22,06,31,6.90
2017,04,22,06,32,7.00
2017,04,22,06,33,7.00
2017,04,22,06,34,7.00
2017,04,22,06,35,7.00
2017,04,22,06,36,7.00
2017,04,22,06,37,7.00
2017,04,22,06,38,7.10
2017,04,22,06,39,7.10
2017,04,22,06,40,7.10
2017,04,22,06,41,7.10
2017,04,22,06,42,7.10
2017,04,22,06,43,7.10
2017,04,22,06,44,7.10
2017,04,22,06,45,7.20
2017,04,22,06,46,7.20
2017,04,22,06,47,7.20
2017,04,22,06,48,7.20
2017,04,22,06,49,7.20
2017,04,22,06,50,7.20
2017,04,22,06,51,7.20
2017,04,22,06,52,7.20
2017,04,22,06,53,7.20
2017,04,22,06,54,7.20
2017,04,22,06,55,7.20
2017,04,22,06,56,7.20
2017,04,22,06,57,7.20
2017,04,22,06,58,7.20
2017,04,22,06,59,7.20
2017,04,22,07,00,7.20
2017,04,22,07,01,7.30
2017,04,22,07,02,7.30
2017,04,22,07,03,7.30
2017,04,22,07,04,7.30
2017,04,22,07,05,7.30
2017,04,22,07,06,7.30
2017,04,22,07,07,7.30
2017,04,22,07,08,7.40
2017,04,22,07,09,7.40
2017,04,22,07,10,7.40
2017,04,22,07,11,7.40
2017,04,22,07,12,7.50
2017,04,22,07,13,7.50
2017,04,22,07,14,7.50
2017,04,22,07,15,7.60
2017,04,22,07,16,7.60
2017,04,22,07,17,7.60
2017,04,22,07,18,7.60
2017,04,22,07,19,7.70
2017,04,22,07,20,7.70
2017,04,22,07,21,7.70
2017,04,22,07,22,7.70
2017,04,22,07,23,7.70
2017,04,22,07,24,7.70
2017,04,22,07,25,7.70
2017,04,22,07,26,7.70
2017,04,22,07,27,7.80
2017,04,22,07,28,7.80
2017,04,22,07,29,7.80
2017,04,22,07,30,7.80
2017,04,22,07,31,7.80
2017,04,22,07,32,7.80
2017,04,22,07,33,7.80
2017,04,22,07,34,7.80
2017,04,22,07,35,7.90
2017,04,22,07,36,7.90
2017,04,22,07,37,7.90
2017,04,22,07,38,7.90
2017,04,22,07,39,7.90
2017,04,22,07,40,7.90
2017,04,22,07,41,7.90
2017,04,22,07,42,7.90
2017,04,22,07,43,7.90
2017,04,22,07,44,7.90
2017,04,22,07,45,7.90
2017,04,22,07,46,7.90
2017,04,22,07,47,7.90
2017,04,22,07,48,8.00
2017,04,22,07,49,8.00
2017,04,22,07,50,8.00
2017,04,22,07,51,8.00
2017,04,22,07,52,8.10
2017,04,22,07,53,8.10
2017,04,22,07,54,8.10
2017,04,22,07,55,8.10
2017,04,22,07,56,8.10
2017,04,22,07,57,8.10
2017,04,22,07,58,8.10
2017,04,22,07,59,8.10
2017,04,22,08,00,8.10
2017,04,22,08,01,8.20
2017,04,22,08,02,8.20
2017,04,22,08,03,8.20
2017,04,22,08,04,8.20
2017,04,22,08,05,8.20
2017,04,22,08,06,8.20
2017,04,22,08,07,8.30
2017,04,22,08,08,8.30
2017,04,22,08,09,8.30
2017,04,22,08,10,8.30
2017,04,22,08,11,8.30
2017,04,22,08,12,8.40
2017,04,22,08,13,8.40
2017,04,22,08,14,8.40
2017,04,22,08,15,8.40
2017,04,22,08,16,8.50
2017,04,22,08,17,8.50
2017,04,22,08,18,8.50
2017,04,22,08,19,8.60
2017,04,22,08,20,8.60
2017,04,22,08,21,8.60
2017,04,22,08,22,8.60
2017,04,22,08,23,8.60
2017,04,22,08,24,8.70
2017,04,22,08,25,8.70
2017,04,22,08,26,8.70
2017,04,22,08,27,8.70
2017,04,22,08,28,8.70
2017,04,22,08,29,8.70
2017,04,22,08,30,8.70
2017,04,22,08,31,8.80
2017,04,22,08,32,8.80
2017,04,22,08,33,8.80
2017,04,22,08,34,8.80
2017,04,22,08,35,8.90
2017,04,22,08,36,8.90
2017,04,22,08,37,8.90
2017,04,22,08,38,8.90
2017,04,22,08,39,8.90
2017,04,22,08,40,9.00
2017,04,22,08,41,9.00
2017,04,22,08,42,9.10
2017,04,22,08,43,9.10
2017,04,22,08,44,9.10
2017,04,22,08,45,9.10
2017,04,22,08,46,9.10
2017,04,22,08,47,9.10
2017,04,22,08,48,9.10
2017,04,22,08,49,9.10
2017,04,22,08,50,9.10
2017,04,22,08,51,9.20
2017,04,22,08,52,9.20
2017,04,22,08,53,9.20
2017,04,22,08,54,9.20
2017,04,22,08,55,9.20
2017,04,22,08,56,9.30
2017,04,22,08,57,9.30
2017,04,22,08,58,9.30
2017,04,22,08,59,9.30
2017,04,22,09,00,9.30
2017,04,22,09,01,9.30
2017,04,22,09,02,9.30
2017,04,22,09,03,9.40
2017,04,22,09,04,9.40
2017,04,22,09,05,9.40
2017,04,22,09,06,9.50
2017,04,22,09,07,9.50
2017,04,22,09,08,9.60
2017,04,22,09,09,9.60
2017,04,22,09,10,9.60
2017,04,22,09,11,9.60
2017,04,22,09,12,9.70
2017,04,22,09,13,9.70
2017,04,22,09,14,9.70
2017,04,22,09,15,9.70
2017,04,22,09,16,9.70
2017,04,22,09,17,9.80
2017,04,22,09,18,9.80
2017,04,22,09,19,9.80
2017,04,22,09,20,9.80
2017,04,22,09,21,9.80
2017,04,22,09,22,9.90
2017,04,22,09,23,9.90
2017,04,22,09,24,9.90
2017,04,22,09,25,9.90
2017,04,22,09,26,9.90
2017,04,22,09,27,10.00
2017,04,22,09,28,10.00
2017,04,22,09,29,10.00
2017,04,22,09,30,10.00
2017,04,22,09,31,10.00
2017,04,22,09,32,10.00
2017,04,22,09,33,10.00
2017,04,22,09,34,10.10
2017,04,22,09,35,10.10
2017,04,22,09,36,10.10
2017,04,22,09,37,10.10
2017,04,22,09,38,10.10
2017,04,22,09,39,10.10
2017,04,22,09,40,10.10
2017,04,22,09,41,10.10
2017,04,22,09,42,10.20
2017,04,22,09,43,10.10
2017,04,22,09,44,10.20
2017,04,22,09,45,10.20
2017,04,22,09,46,10.20
2017,04,22,09,47,10.20
2017,04,22,09,48,10.20
2017,04,22,09,49,10.30
2017,04,22,09,50,10.30
2017,04,22,09,51,10.30
2017,04,22,09,52,10.30
2017,04,22,09,53,10.30
2017,04,22,09,54,10.30
2017,04,22,09,55,10.30
2017,04,22,09,56,10.30
2017,04,22,09,57,10.30
2017,04,22,09,58,10.30
2017,04,22,09,59,10.40
2017,04,22,10,00,10.40
2017,04,22,10,01,10.40
2017,04,22,10,02,10.40
2017,04,22,10,03,10.50
2017,04,22,10,04,10.50
2017,04,22,10,05,10.60
2017,04,22,10,06,10.60
2017,04,22,10,07,10.60
2017,04,22,10,08,10.70
2017,04,22,10,09,10.70
2017,04,22,10,10,10.70
2017,04,22,10,11,10.70
2017,04,22,10,12,10.70
2017,04,22,10,13,10.70
2017,04,22,10,14,10.70
2017,04,22,10,15,10.70
2017,04,22,10,16,10.70
2017,04,22,10,17,10.70
2017,04,22,10,18,10.70
2017,04,22,10,19,10.70
2017,04,22,10,20,10.70
2017,04,22,10,21,10.70
2017,04,22,10,22,10.70
2017,04,22,10,23,10.70
2017,04,22,10,24,10.80
2017,04,22,10,25,10.80
2017,04,22,10,26,10.80
2017,04,22,10,27,10.80
2017,04,22,10,28,10.80
2017,04,22,10,29,10.80
2017,04,22,10,30,10.80
2017,04,22,10,31,10.90
2017,04,22,10,32,10.90
2017,04,22,10,33,10.90
2017,04,22,10,34,11.00
2017,04,22,10,35,11.00
2017,04,22,10,36,11.00
2017,04,22,10,37,11.00
2017,04,22,10,38,11.00
2017,04,22,10,39,11.00
2017,04,22,10,40,10.90
2017,04,22,10,41,11.00
2017,04,22,10,42,10.90
2017,04,22,10,43,10.90
2017,04,22,10,44,11.00
2017,04,22,10,45,11.00
2017,04,22,10,46,11.00
2017,04,22,10,47,11.00
2017,04,22,10,48,11.00
2017,04,22,10,49,11.00
2017,04,22,10,50,11.00
2017,04,22,10,51,11.00
2017,04,22,10,52,11.00
2017,04,22,10,53,11.00
2017,04,22,10,54,11.10
2017,04,22,10,55,11.10
2017,04,22,10,56,11.10
2017,04,22,10,57,11.10
2017,04,22,10,58,11.10
2017,04,22,10,59,11.10
2017,04,22,11,00,11.10
2017,04,22,11,01,11.10
2017,04,22,11,02,11.10
2017,04,22,11,03,11.10
2017,04,22,11,04,11.10
2017,04,22,11,05,11.10
2017,04,22,11,06,11.10
2017,04,22,11,07,11.10
2017,04,22,11,08,11.10
2017,04,22,11,09,11.10
2017,04,22,11,10,11.10
2017,04,22,11,11,11.10
2017,04,22,11,12,11.10
2017,04,22,11,13,11.10
2017,04,22,11,14,11.10
2017,04,22,11,15,11.10
2017,04,22,11,16,11.10
2017,04,22,11,17,11.20
2017,04,22,11,18,11.20
2017,04,22,11,19,11.20
2017,04,22,11,20,11.30
2017,04,22,11,21,11.30
2017,04,22,11,22,11.30
2017,04,22,11,23,11.30
2017,04,22,11,24,11.30
2017,04,22,11,25,11.30
2017,04,22,11,26,11.30
2017,04,22,11,27,11.30
2017,04,22,11,28,11.30
2017,04,22,11,29,11.30
2017,04,22,11,30,11.30
2017,04,22,11,31,11.30
2017,04,22,11,32,11.30
2017,04,22,11,33,11.30
2017,04,22,11,34,11.30
2017,04,22,11,35,11.30
2017,04,22,11,36,11.30
2017,04,22,11,37,11.30
2017,04,22,11,38,11.30
2017,04,22,11,39,11.30
2017,04,22,11,40,11.30
2017,04,22,11,41,11.30
2017,04,22,11,42,11.30
2017,04,22,11,43,11.30
2017,04,22,11,44,11.30
2017,04,22,11,45,11.30
2017,04,22,11,46,11.30
2017,04,22,11,47,11.30
2017,04,22,11,48,11.40
2017,04,22,11,49,11.40
2017,04,22,11,50,11.40
2017,04,22,11,51,11.40
2017,04,22,11,52,11.40
2017,04,22,11,53,11.40
2017,04,22,11,54,11.40
2017,04,22,11,55,11.40
2017,04,22,11,56,11.40
2017,04,22,11,57,11.40
2017,04,22,11,58,11.40
2017,04,22,11,59,11.40
2017,04,22,12,00,11.40
2017,04,22,12,01,11.40
2017,04,22,12,02,11.40
2017,04,22,12,03,11.40
2017,04,22,12,04,11.40
2017,04,22,12,05,11.40
2017,04,22,12,06,11.40
2017,04,22,12,07,11.30
2017,04,22,12,08,11.30
2017,04,22,12,09,11.30
2017,04,22,12,10,11.40
2017,04,22,12,11,11.40
2017,04,22,12,12,11.40
2017,04,22,12,13,11.40
2017,04,22,12,14,11.40
2017,04,22,12,15,11.40
2017,04,22,12,16,11.40
2017,04,22,12,17,11.50
2017,04,22,12,18,11.60
2017,04,22,12,19,11.60
2017,04,22,12,20,11.60
2017,04,22,12,21,11.60
2017,04,22,12,22,11.60
2017,04,22,12,23,11.60
2017,04,22,12,24,11.50
2017,04,22,12,25,11.40
2017,04,22,12,26,11.30
2017,04,22,12,27,11.30
2017,04,22,12,28,11.20
2017,04,22,12,29,11.20
2017,04,22,12,30,11.20
2017,04,22,12,31,11.10
2017,04,22,12,32,11.10
2017,04,22,12,33,11.10
2017,04,22,12,34,11.00
2017,04,22,12,35,11.00
2017,04,22,12,36,10.90
2017,04,22,12,37,10.90
2017,04,22,12,38,10.90
2017,04,22,12,39,10.90
2017,04,22,12,40,10.80
2017,04,22,12,41,10.80
2017,04,22,12,42,10.80
2017,04,22,12,43,10.80
2017,04,22,12,44,10.80
2017,04,22,12,45,10.80
2017,04,22,12,46,10.70
2017,04,22,12,47,10.70
2017,04,22,12,48,10.70
2017,04,22,12,49,10.80
2017,04,22,12,50,10.80
2017,04,22,12,51,10.70
2017,04,22,12,52,10.70
2017,04,22,12,53,10.70
2017,04,22,12,54,10.70
2017,04,22,12,55,10.70
2017,04,22,12,56,10.70
2017,04,22,12,57,10.70
2017,04,22,12,58,10.70
2017,04,22,12,59,10.80
2017,04,22,13,00,10.80
2017,04,22,13,01,10.80
2017,04,22,13,02,10.80
2017,04,22,13,03,10.80
2017,04,22,13,04,10.80
2017,04,22,13,05,10.80
2017,04,22,13,06,10.80
2017,04,22,13,07,10.80
2017,04,22,13,08,10.90
2017,04,22,13,09,10.90
2017,04,22,13,10,10.80
2017,04,22,13,11,10.80
2017,04,22,13,12,10.80
2017,04,22,13,13,10.80
2017,04,22,13,14,10.80
2017,04,22,13,15,10.80
2017,04,22,13,16,10.80
2017,04,22,13,17,10.80
2017,04,22,13,18,10.70
2017,04,22,13,19,10.70
2017,04,22,13,20,10.70
2017,04,22,13,21,10.70
2017,04,22,13,22,10.70
2017,04,22,13,23,10.70
2017,04,22,13,24,10.70
2017,04,22,13,25,10.70
2017,04,22,13,26,10.70
2017,04,22,13,27,10.70
2017,04,22,13,28,10.70
2017,04,22,13,29,10.70
2017,04,22,13,30,10.70
2017,04,22,13,31,10.70
2017,04,22,13,32,10.70
2017,04,22,13,33,10.70
2017,04,22,13,34,10.70
2017,04,22,13,35,10.70
2017,04,22,13,36,10.70
2017,04,22,13,37,10.70
2017,04,22,13,38,10.70
2017,04,22,13,39,10.70
2017,04,22,13,40,10.70
2017,04,22,13,41,10.70
2017,04,22,13,42,10.70
2017,04,22,13,43,10.70
2017,04,22,13,44,10.70
2017,04,22,13,45,10.70
2017,04,22,13,46,10.60
2017,04,22,13,47,10.60
2017,04,22,13,48,10.60
2017,04,22,13,49,10.60
2017,04,22,13,50,10.60
2017,04,22,13,51,10.60
2017,04,22,13,52,10.60
2017,04,22,13,53,10.60
2017,04,22,13,54,10.50
2017,04,22,13,55,10.40
2017,04,22,13,56,10.40
2017,04,22,13,57,10.30
2017,04,22,13,58,10.30
2017,04,22,13,59,10.30
2017,04,22,14,00,10.30
2017,04,22,14,01,10.30
2017,04,22,14,02,10.30
2017,04,22,14,03,10.30
2017,04,22,14,04,10.30
2017,04,22,14,05,10.30
2017,04,22,14,06,10.30
2017,04,22,14,07,10.30
2017,04,22,14,08,10.30
2017,04,22,14,09,10.30
2017,04,22,14,10,10.30
2017,04,22,14,11,10.30
2017,04,22,14,12,10.30
2017,04,22,14,13,10.30
2017,04,22,14,14,10.30
2017,04,22,14,15,10.30
2017,04,22,14,16,10.30
2017,04,22,14,17,10.30
2017,04,22,14,18,10.30
2017,04,22,14,19,10.30
2017,04,22,14,20,10.30
2017,04,22,14,21,10.20
2017,04,22,14,22,10.20
2017,04,22,14,23,10.20
2017,04,22,14,24,10.10
2017,04,22,14,25,10.10
2017,04,22,14,26,10.10
2017,04,22,14,27,10.10
2017,04,22,14,28,10.10
2017,04,22,14,29,10.10
2017,04,22,14,30,10.10
2017,04,22,14,31,10.10
2017,04,22,14,32,10.10
2017,04,22,14,33,10.10
2017,04,22,14,34,10.10
2017,04,22,14,35,10.10
2017,04,22,14,36,10.10
2017,04,22,14,37,10.10
2017,04,22,14,38,10.10
2017,04,22,14,39,10.10
2017,04,22,14,40,10.10
2017,04,22,14,41,10.10
2017,04,22,14,42,10.10
2017,04,22,14,43,10.20
2017,04,22,14,44,10.20
2017,04,22,14,45,10.20
2017,04,22,14,46,10.10
2017,04,22,14,47,10.10
2017,04,22,14,48,10.20
2017,04,22,14,49,10.20
2017,04,22,14,50,10.20
2017,04,22,14,51,10.20
2017,04,22,14,52,10.20
2017,04,22,14,53,10.20
2017,04,22,14,54,10.20
2017,04,22,14,55,10.20
2017,04,22,14,56,10.20
2017,04,22,14,57,10.20
2017,04,22,14,58,10.20
2017,04,22,14,59,10.20
2017,04,22,15,00,10.20
2017,04,22,15,01,10.30
2017,04,22,15,02,10.40
2017,04,22,15,03,10.40
2017,04,22,15,04,10.40
2017,04,22,15,05,10.50
2017,04,22,15,06,10.50
2017,04,22,15,07,10.50
2017,04,22,15,08,10.60
2017,04,22,15,09,10.60
2017,04,22,15,10,10.50
2017,04,22,15,11,10.60
2017,04,22,15,12,10.60
2017,04,22,15,13,10.70
2017,04,22,15,14,10.70
2017,04,22,15,15,10.70
2017,04,22,15,16,10.70
2017,04,22,15,17,10.70
2017,04,22,15,18,10.70
2017,04,22,15,19,10.70
2017,04,22,15,20,10.80
2017,04,22,15,21,10.80
2017,04,22,15,22,10.90
2017,04,22,15,23,10.90
2017,04,22,15,24,10.90
2017,04,22,15,25,10.90
2017,04,22,15,26,10.90
2017,04,22,15,27,11.00
2017,04,22,15,28,11.10
2017,04,22,15,29,11.10
2017,04,22,15,30,11.10
2017,04,22,15,31,11.10
2017,04,22,15,32,11.10
2017,04,22,15,33,11.10
2017,04,22,15,34,11.10
2017,04,22,15,35,11.10
2017,04,22,15,36,11.10
2017,04,22,15,37,11.20
2017,04,22,15,38,11.20
2017,04,22,15,39,11.30
2017,04,22,15,40,11.30
2017,04,22,15,41,11.30
2017,04,22,15,42,11.30
2017,04,22,15,43,11.40
2017,04,22,15,44,11.40
2017,04,22,15,45,11.40
2017,04,22,15,46,11.50
2017,04,22,15,47,11.50
2017,04,22,15,48,11.50
2017,04,22,15,49,11.40
2017,04,22,15,50,11.30
2017,04,22,15,51,11.20
2017,04,22,15,52,11.20
2017,04,22,15,53,11.10
2017,04,22,15,54,11.00
2017,04,22,15,55,11.00
2017,04,22,15,56,11.00
2017,04,22,15,57,11.00
2017,04,22,15,58,11.00
2017,04,22,15,59,11.00
2017,04,22,16,00,11.00
2017,04,22,16,01,11.00
2017,04,22,16,02,11.10
2017,04,22,16,03,11.10
2017,04,22,16,04,11.10
2017,04,22,16,05,11.10
2017,04,22,16,06,11.10
2017,04,22,16,07,11.10
2017,04,22,16,08,11.10
2017,04,22,16,09,11.10
2017,04,22,16,10,11.10
2017,04,22,16,11,11.10
2017,04,22,16,12,11.10
2017,04,22,16,13,11.10
2017,04,22,16,14,11.10
2017,04,22,16,15,11.10
2017,04,22,16,16,11.10
2017,04,22,16,17,11.20
2017,04,22,16,18,11.20
2017,04,22,16,19,11.20
2017,04,22,16,20,11.20
2017,04,22,16,21,11.20
2017,04,22,16,22,11.30
2017,04,22,16,23,11.20
2017,04,22,16,24,11.30
2017,04,22,16,25,11.30
2017,04,22,16,26,11.30
2017,04,22,16,27,11.30
2017,04,22,16,28,11.30
2017,04,22,16,29,11.30
2017,04,22,16,30,11.30
2017,04,22,16,31,11.30
2017,04,22,16,32,11.30
2017,04,22,16,33,11.30
2017,04,22,16,34,11.30
2017,04,22,16,35,11.30
2017,04,22,16,36,11.30
2017,04,22,16,37,11.20
2017,04,22,16,38,11.20
2017,04,22,16,39,11.20
2017,04,22,16,40,11.20
2017,04,22,16,41,11.20
2017,04,22,16,42,11.20
2017,04,22,16,43,11.20
2017,04,22,16,44,11.30
2017,04,22,16,45,11.30
2017,04,22,16,46,11.30
2017,04,22,16,47,11.30
2017,04,22,16,48,11.30
2017,04,22,16,49,11.30
2017,04,22,16,50,11.20
2017,04,22,16,51,11.20
2017,04,22,16,52,11.20
2017,04,22,16,53,11.20
2017,04,22,16,54,11.20
2017,04,22,16,55,11.20
2017,04,22,16,56,11.20
2017,04,22,16,57,11.20
2017,04,22,16,58,11.30
2017,04,22,16,59,11.30
2017,04,22,17,00,11.30
2017,04,22,17,01,11.30
2017,04,22,17,02,11.30
2017,04,22,17,03,11.30
2017,04,22,17,04,11.40
2017,04,22,17,05,11.40
2017,04,22,17,06,11.40
2017,04,22,17,07,11.50
2017,04,22,17,08,11.40
2017,04,22,17,09,11.50
2017,04,22,17,10,11.50
2017,04,22,17,11,11.50
2017,04,22,17,12,11.40
2017,04,22,17,13,11.50
2017,04,22,17,14,11.50
2017,04,22,17,15,11.50
2017,04,22,17,16,11.50
2017,04,22,17,17,11.50
2017,04,22,17,18,11.50
2017,04,22,17,19,11.60
2017,04,22,17,20,11.60
2017,04,22,17,21,11.50
2017,04,22,17,22,11.50
2017,04,22,17,23,11.50
2017,04,22,17,24,11.50
2017,04,22,17,25,11.50
2017,04,22,17,26,11.50
2017,04,22,17,27,11.50
2017,04,22,17,28,11.50
2017,04,22,17,29,11.50
2017,04,22,17,30,11.50
2017,04,22,17,31,11.40
2017,04,22,17,32,11.40
2017,04,22,17,33,11.40
2017,04,22,17,34,11.40
2017,04,22,17,35,11.40
2017,04,22,17,36,11.30
2017,04,22,17,37,11.30
2017,04,22,17,38,11.40
2017,04,22,17,39,11.30
2017,04,22,17,40,11.30
2017,04,22,17,41,11.30
2017,04,22,17,42,11.30
2017,04,22,17,43,11.40
2017,04,22,17,44,11.40